Погода в Марави

Филиппины     8°00′10″N   124°18′18″E
темп.,
°C
ветер,
м/с
пор.,
м/с
влажн.,
%
обл.,
%
осадки,
мм/ч
давл.,
гПа
погр.,
м
14 апреля, ср
ср1423:00+21ю018783 0.0 101368
02:00+20св0192100 0.0 101178
05:00+20св0196100 0.0 101086
08:00+24с127942 0.0 1012586
11:00+26ссз226789 0.2 10111115
14:00+26сз236988 1.6 10091019
17:00+22с1188100 1.4 1010112
20:00+21св0091100 1.7 101297
15 апреля, чт
чт1523:00+20всв1190100 0.0 101280
02:00+20юв019092 0.0 101074
05:00+20вюв1191100 0.0 101067
08:00+22в1181100 0.0 1012242
11:00+26сз1165100 0.0 1011884
14:00+24с2383100 1.7 1009583
17:00+22с1292100 2.6 1009116
20:00+21св1193100 2.8 101294
16 апреля, пт
пт1623:00+20всв0193100 0.0 101281
02:00+20св119399 0.0 101079
05:00+19всв119444 0.0 101178
08:00+23ссв1282100 0.0 1012434
11:00+26с2367100 0.4 10111155
14:00+25ссз347381 4.3 1009932
17:00+23с2381100 1.1 1009411
20:00+21с1189100 1.1 1011109
17 апреля, сб
сб1723:00+21ссз0188100 0.0 101294
02:00+21с1190100 0.0 1010109
05:00+20ссв0194100 0.0 1011101
08:00+23с237998 0.0 1012671
11:00+24с3469100 0.0 10111032
14:00+24ссз2466100 0.0 1009855
17:00+23с1177100 0.0 1010160
20:00+21юв1183100 0.6 101282
18 апреля, вс
вс1823:00+21ю1183100 0.1 101196
02:00+21юз1184100 0.1 1009116
05:00+20юв1186100 0.0 101089
08:00+22ю0182100 0.0 1011159
11:00+23ссз1277100 0.0 1011546
14:00+23сз1278100 0.0 1008568
17:00+22з1285100 0.0 1009183
20:00+21ююз2387100 0.0 1010168